EW8487 Weather Reports


Display with metric or nautical units.
time (UTC)temp
F
wind
direction
speed
MPH
gust
MPH
rain 1hr
in
rain 24hr
in
rain mn
in
humidity
%
barometer
mb
20260508071005 48 125 1.0 1.0 0.00 0.30 0.00 92 1009.7
20260508065508 48 176 1.0 2.0 0.00 0.30 0.00 93 1009.4
20260508064004 48 226 0.0 1.0 0.00 0.30 0.00 95 1009.2
20260508061004 47 200 0.0 1.0 0.00 0.30 0.00 96 1008.8
20260508055508 47 294 0.0 1.0 0.00 0.30 0.00 96 1008.9
20260508054004 47 245 0.0 1.0 0.00 0.30 0.00 96 1008.7
20260508052507 47 252 0.0 0.0 0.00 0.30 0.00 96 1008.5
20260508045507 46 260 0.0 1.0 0.00 0.30 0.00 96 1008.6
20260508044004 46 203 0.0 1.0 0.00 0.30 0.00 96 1008.5
20260508042507 46 207 0.0 1.0 0.00 0.30 0.00 95 1008.7
20260508041003 47 319 0.0 1.0 0.00 0.30 0.00 95 1008.9
20260508035507 46 224 0.0 1.0 0.00 0.30 0.00 96 1008.6
20260508034003 46 49 0.0 1.0 0.00 0.30 0.00 96 1008.7
20260508032507 46 4 1.0 1.0 0.00 0.30 0.00 97 1008.7
20260508031002 45 271 0.0 1.0 0.00 0.30 0.00 98 1009.0
20260508025508 44 235 0.0 1.0 0.00 0.30 0.00 98 1008.9
20260508021003 45 226 0.0 1.0 0.00 0.30 0.00 98 1008.5
20260508014003 46 297 0.0 1.0 0.00 0.30 0.00 98 1009.0
20260508011007 46 229 1.0 1.0 0.00 0.30 0.00 98 1009.7
20260508005507 45 267 0.0 1.0 0.00 0.30 0.00 98 1009.9
20260508004003 44 271 0.0 1.0 0.00 0.30 0.00 97 1009.8
20260508002507 43 252 0.0 1.0 0.00 0.30 0.00 97 1009.7
20260508001004 44 295 0.0 0.0 0.00 0.30 0.00 97 1009.7
20260507235508 44 239 0.0 1.0 0.00 0.30 0.00 97 1009.9
20260507234042 45 231 0.0 1.0 0.00 0.30 0.00 97 1009.9
20260507232535 46 225 0.0 1.0 0.00 0.30 0.00 96 1009.9
20260507231024 46 228 0.0 1.0 0.00 0.30 0.00 96 1010.2
20260507225522 46 249 0.0 1.0 0.00 0.30 0.00 96 1010.2
20260507224012 46 280 0.0 1.0 0.00 0.30 0.00 96 1010.3
20260507222508 46 249 0.0 1.0 0.00 0.30 0.00 96 1010.5
20260507221004 47 233 0.0 1.0 0.00 0.30 0.00 95 1010.3
20260507215507 47 291 1.0 1.0 0.00 0.30 0.30 95 1010.8
20260507214004 47 306 0.0 1.0 0.00 0.30 0.30 95 1010.4
20260507212507 46 224 0.0 1.0 0.00 0.30 0.30 95 1010.6
20260507211004 47 290 0.0 1.0 0.00 0.30 0.30 95 1010.4
20260507205508 46 238 1.0 1.0 0.00 0.30 0.30 94 1010.1
20260507204004 47 231 0.0 1.0 0.00 0.30 0.30 94 1009.9
20260507202506 47 241 0.0 1.0 0.00 0.30 0.30 93 1009.8
20260507201002 48 246 0.0 1.0 0.00 0.30 0.30 91 1009.6
20260507195507 48 193 0.0 1.0 0.00 0.30 0.30 91 1009.5
20260507194003 49 6 0.0 1.0 0.00 0.30 0.30 90 1009.5
20260507192509 49 231 0.0 1.0 0.00 0.30 0.30 90 1009.2
20260507191002 50 106 0.0 1.0 0.00 0.30 0.30 88 1008.9
20260507181004 52 169 0.0 2.0 0.00 0.30 0.30 79 1008.2
20260507175506 53 122 1.0 2.0 0.00 0.30 0.30 77 1008.0
20260507174003 54 194 0.0 2.0 0.00 0.30 0.30 75 1008.1
20260507165506 54 61 1.0 2.0 0.00 0.30 0.30 75 1007.8
20260507164003 55 178 1.0 2.0 0.00 0.30 0.30 75 1008.0
20260507162507 54 91 0.0 1.0 0.00 0.30 0.30 80 1007.8
20260507161003 53 151 1.0 2.0 0.00 0.30 0.30 83 1007.5
20260507155506 52 179 1.0 2.0 0.01 0.29 0.30 86 1007.9
20260507154002 50 194 1.0 2.0 0.04 0.29 0.30 93 1007.7
20260507152506 49 165 1.0 2.0 0.08 0.29 0.30 95 1007.8
20260507151003 48 131 0.0 1.0 0.13 0.29 0.30 95 1008.1
20260507145506 48 127 0.0 1.0 0.17 0.14 0.29 96 1008.4
20260507142507 47 192 0.0 1.0 0.12 0.14 0.22 95 1009.0
20260507141003 48 205 0.0 1.0 0.12 0.14 0.17 94 1009.0
20260507135506 49 223 0.0 1.0 0.02 0.02 0.11 94 1008.8
20260507134002 50 174 0.0 2.0 0.02 0.02 0.03 94 1008.7
20260507132512 50 28 0.0 0.0 0.00 0.00 0.00 93 1008.4
20260507131055 50 103 1.0 4.0 0.03 0.02 0.03 92 1008.2
20260507124055 53 95 1.0 6.0 0.00 0.00 0.00 80 1007.9
20260507122556 55 22 2.0 5.0 0.00 0.00 0.00 77 1007.9
20260507121055 65 157 1.0 4.0 0.00 0.00 0.00 48 1007.6
20260507115555 63 79 0.0 4.0 0.00 0.00 0.00 53 1007.7
20260507112554 63 179 1.0 4.0 0.00 0.00 0.00 57 1008.1
20260507111055 60 183 1.0 2.0 0.00 0.00 0.00 60 1008.3
20260507101059 58 209 1.0 2.0 0.00 0.00 0.00 66 1008.7
20260507095555 56 233 1.0 2.0 0.00 0.00 0.00 68 1008.7
20260507092633 54 217 1.0 2.0 0.00 0.00 0.00 73 1009.0
20260507091125 55 137 1.0 2.0 0.00 0.00 0.00 71 1008.9
20260507085618 55 129 0.0 2.0 0.00 0.00 0.00 74 1009.0
20260507084112 54 92 0.0 2.0 0.00 0.00 0.00 75 1009.0
20260507082603 55 186 1.0 3.0 0.00 0.00 0.00 74 1008.7
20260507081055 53 54 1.0 2.0 0.00 0.00 0.00 77 1008.9
20260507074055 51 76 1.0 2.0 0.00 0.00 0.00 85 1008.7
20260507072555 50 62 1.0 2.0 0.00 0.00 0.00 89 1008.8